EW7160 Mount Pleasant SC US current weather conditions

sailwx.info

Wind from 135

Air temperature 27.8° C
Dewpoint 24.6° C

Last reported at 2020-Jul-13 08:01 UTC.
Time now 2020-Jul-13 08:40 UTC

Location: N 32°52' W 079°49'.
View on Google Maps.

See reports from other nearby stations

  
Tides and Currents Weather Stations Pressure Air Temp Water Temp Dewpoint Dewpoint Depression Visibility Wind Speed Wind Dir Waves Ship Positions
date/time (UTC)wind fromknots sea level pressurealtimeterstation pressurevisibilityair tempwater tempwave heightnotes
2020-Jul-13 08:01 135 27.8
2020-Jul-13 07:52 169 0 27.8
2020-Jul-13 07:42 157 27.8
2020-Jul-13 07:32 157 27.8
2020-Jul-13 07:22 189 0 27.8
2020-Jul-13 07:13 157 0 27.8
2020-Jul-13 07:03 159 1 27.8
2020-Jul-13 06:53 157 0 27.8
2020-Jul-13 06:43 151 0 27.8
2020-Jul-13 06:33 157 0 27.8
2020-Jul-13 06:23 157 28.3
2020-Jul-13 06:13 157 0 28.3
2020-Jul-13 06:03 157 0 28.3
2020-Jul-13 05:53 157 0 28.3
2020-Jul-13 05:44 157 28.3
2020-Jul-13 05:34 157 28.3
2020-Jul-13 05:24 162 0 28.3
2020-Jul-13 05:15 157 28.3
2020-Jul-13 04:53 157 27.8
2020-Jul-13 04:43 157 27.8
2020-Jul-13 04:34 157 28.3
2020-Jul-13 04:24 157 28.3
2020-Jul-13 04:14 157 0 28.3
2020-Jul-13 04:04 157 28.3
2020-Jul-13 03:54 157 28.3
2020-Jul-13 03:44 157 28.3
2020-Jul-13 03:35 157 27.8
2020-Jul-13 03:25 157 27.8
2020-Jul-13 03:15 157 27.8
2020-Jul-13 03:05 157 27.8
2020-Jul-13 02:55 157 27.8
2020-Jul-13 02:45 157 28.3
2020-Jul-13 02:36 157 28.3
2020-Jul-13 02:26 157 28.3
2020-Jul-13 02:16 157 28.3
2020-Jul-13 02:07 157 28.3
2020-Jul-13 01:58 157 28.3
2020-Jul-13 01:49 157 28.3
2020-Jul-13 01:39 157 28.9
2020-Jul-13 01:29 157 28.9
2020-Jul-13 01:20 157 28.9
2020-Jul-13 01:10 157 28.9
2020-Jul-13 01:00 157 29.4
2020-Jul-13 00:50 157 29.4
2020-Jul-13 00:41 157 29.4
2020-Jul-13 00:31 157 30.0
2020-Jul-13 00:22 157 30.0
2020-Jul-13 00:13 157 30.6
2020-Jul-13 00:03 157 31.1
2020-Jul-12 23:54 157 31.7
2020-Jul-12 23:45 157 31.7
2020-Jul-12 23:35 157 32.2
2020-Jul-12 23:25 157 33.3
2020-Jul-12 23:15 157 33.3
2020-Jul-12 23:06 157 33.9
2020-Jul-12 22:56 157 33.9
2020-Jul-12 22:47 157 0 33.3
2020-Jul-12 22:38 157 0 33.3
2020-Jul-12 22:28 157 33.9
2020-Jul-12 22:19 157 0 34.4
2020-Jul-12 22:10 157 35.0
2020-Jul-12 22:01 157 0 35.0
2020-Jul-12 21:51 162 0 35.0
2020-Jul-12 21:41 132 35.0
2020-Jul-12 21:32 157 35.6
2020-Jul-12 21:22 157 35.0
2020-Jul-12 21:13 157 35.0
2020-Jul-12 21:03 135 35.0
2020-Jul-12 20:54 161 1 35.0
2020-Jul-12 20:44 157 35.0
2020-Jul-12 20:35 135 35.0
2020-Jul-12 20:25 157 34.4
2020-Jul-12 20:15 163 2 34.4
2020-Jul-12 20:06 112 33.9
2020-Jul-12 19:56 157 33.3
2020-Jul-12 19:47 157 0 33.3
2020-Jul-12 19:37 112 33.9
2020-Jul-12 19:27 157 36.1
2020-Jul-12 19:17 157 0 37.2
2020-Jul-12 19:08 157 0 37.2
2020-Jul-12 18:58 168 37.2
2020-Jul-12 18:48 157 0 36.7
2020-Jul-12 18:39 167 2 36.1
2020-Jul-12 18:29 157 35.6
2020-Jul-12 18:19 166 35.6
2020-Jul-12 18:09 256 35.6
2020-Jul-12 17:59 160 0 36.1
2020-Jul-12 17:49 175 2 36.7
2020-Jul-12 17:39 170 0 36.7
2020-Jul-12 17:29 157 0 37.2
2020-Jul-12 17:19 168 0 37.2
2020-Jul-12 17:09 166 0 36.7
2020-Jul-12 17:00 160 2 36.1
2020-Jul-12 16:50 163 2 36.1
2020-Jul-12 16:41 164 4 35.6
2020-Jul-12 16:31 181 2 35.0
2020-Jul-12 16:21 167 0 33.9
2020-Jul-12 16:11 140 34.4
2020-Jul-12 16:02 112 35.0
2020-Jul-12 15:52 112 35.6
2020-Jul-12 15:42 090 35.0
2020-Jul-12 15:33 157 33.9
2020-Jul-12 15:23 159 33.3
2020-Jul-12 15:13 157 33.3
2020-Jul-12 15:03 135 34.4
2020-Jul-12 14:53 135 35.6
2020-Jul-12 14:43 135 35.0
2020-Jul-12 14:34 135 34.4
2020-Jul-12 14:24 135 33.9
2020-Jul-12 14:14 157 33.9
2020-Jul-12 14:05 157 33.3
2020-Jul-12 13:55 157 32.2
2020-Jul-12 13:46 157 31.7
2020-Jul-12 13:36 157 30.6
2020-Jul-12 13:26 157 29.4
2020-Jul-12 13:16 337 28.3
2020-Jul-12 13:07 337 27.8
2020-Jul-12 12:57 337 27.8
2020-Jul-12 12:48 337 27.8
2020-Jul-12 12:38 337 27.2
2020-Jul-12 12:28 337 27.2
2020-Jul-12 12:18 337 26.7
2020-Jul-12 12:09 337 26.7
2020-Jul-12 12:00 337 26.7
2020-Jul-12 11:50 337 26.1
2020-Jul-12 11:40 337 26.1
2020-Jul-12 11:30 337 26.1
2020-Jul-12 11:20 337 26.1
2020-Jul-12 11:11 337 25.6
2020-Jul-12 11:01 337 25.6
2020-Jul-12 10:51 337 25.6
2020-Jul-12 10:41 337 25.6
2020-Jul-12 10:32 337 25.6
2020-Jul-12 10:22 337 25.6
2020-Jul-12 10:13 337 25.6
2020-Jul-12 10:03 337 25.0
2020-Jul-12 09:53 337 25.6
2020-Jul-12 09:44 337 25.6
2020-Jul-12 09:35 337 25.6
2020-Jul-12 09:25 337 25.6
2020-Jul-12 09:15 337 26.1
2020-Jul-12 09:06 337 26.1
2020-Jul-12 08:56 337 26.1
2020-Jul-12 08:47 337 26.1
2020-Jul-12 08:37 337 26.7
2020-Jul-12 08:27 337 26.7
2020-Jul-12 08:17 337 26.7
2020-Jul-12 08:08 292 26.7
2020-Jul-12 07:58 292 26.7
2020-Jul-12 07:49 292 26.7
2020-Jul-12 07:39 292 26.7
2020-Jul-12 07:30 292 26.7
2020-Jul-12 07:21 292 26.7
2020-Jul-12 07:11 292 26.7
2020-Jul-12 07:02 292 26.7
2020-Jul-12 06:52 292 26.7
2020-Jul-12 06:42 292 26.7
2020-Jul-12 06:32 292 26.7
2020-Jul-12 06:22 292 26.7
2020-Jul-12 06:13 292 26.1
2020-Jul-12 06:03 292 26.1
2020-Jul-12 05:53 292 26.1
2020-Jul-12 05:43 292 26.7
2020-Jul-12 05:34 292 26.7
2020-Jul-12 05:24 292 26.7
2020-Jul-12 05:15 292 26.7
2020-Jul-12 05:05 292 26.7
2020-Jul-12 04:56 292 26.1
2020-Jul-12 04:46 292 26.1
2020-Jul-12 04:36 292 26.1
2020-Jul-12 04:27 292 26.1
2020-Jul-12 04:18 292 25.6
2020-Jul-12 04:08 292 25.6
2020-Jul-12 03:59 292 25.6
2020-Jul-12 03:50 292 25.6
2020-Jul-12 03:40 292 25.0
2020-Jul-12 03:30 292 25.0
2020-Jul-12 03:21 292 25.0
2020-Jul-12 03:12 292 25.0
2020-Jul-12 03:02 292 25.0
2020-Jul-12 02:52 292 25.0
2020-Jul-12 02:42 292 25.6
2020-Jul-12 02:33 242 2 26.7
2020-Jul-12 02:23 165 4 27.8
2020-Jul-12 02:14 166 3 28.3
2020-Jul-12 02:05 157 28.3
2020-Jul-12 01:55 157 28.3
2020-Jul-12 01:46 157 28.3
2020-Jul-12 01:37 157 28.3
2020-Jul-12 01:27 157 28.3
2020-Jul-12 01:18 157 28.9
2020-Jul-12 01:08 157 28.9
2020-Jul-12 00:58 157 28.9
2020-Jul-12 00:49 157 0 28.9
2020-Jul-12 00:39 112 28.9
2020-Jul-12 00:29 112 28.9
2020-Jul-12 00:20 112 29.4
2020-Jul-12 00:11 112 29.4
2020-Jul-12 00:02 112 29.4
2020-Jul-11 23:52 112 29.4
2020-Jul-11 23:43 112 30.0
2020-Jul-11 23:33 112 30.6
2020-Jul-11 23:23 112 30.6
2020-Jul-11 23:13 112 30.6
2020-Jul-11 23:04 112 30.6
2020-Jul-11 22:55 157 30.6
2020-Jul-11 22:46 157 30.0
2020-Jul-11 22:36 123 0 30.6
2020-Jul-11 22:26 112 30.6
2020-Jul-11 22:16 091 30.6
2020-Jul-11 22:06 292 30.6
2020-Jul-11 21:56 292 30.6
2020-Jul-11 21:47 292 31.1
2020-Jul-11 21:37 024 32.2
2020-Jul-11 21:27 292 32.2
2020-Jul-11 21:18 067 0 32.2
2020-Jul-11 21:08 138 32.2
2020-Jul-11 20:59 067 32.8
2020-Jul-11 20:49 025 33.9
2020-Jul-11 20:39 017 32.8
2020-Jul-11 20:30 067 32.8
2020-Jul-11 20:20 135 33.3
2020-Jul-11 20:10 112 33.3
2020-Jul-11 20:00 135 35.0
2020-Jul-11 19:51 112 35.0
2020-Jul-11 19:42 135 0 35.0
2020-Jul-11 19:32 112 35.0
2020-Jul-11 19:22 112 35.0
2020-Jul-11 19:12 112 35.6
2020-Jul-11 19:02 090 35.0
2020-Jul-11 18:52 071 35.0
2020-Jul-11 18:42 090 35.0
2020-Jul-11 18:33 112 35.6
2020-Jul-11 18:24 030 35.6
2020-Jul-11 18:15 080 36.1
2020-Jul-11 18:06 112 36.7
2020-Jul-11 17:56 086 36.7
2020-Jul-11 17:47 157 36.7
2020-Jul-11 17:38 157 36.1
2020-Jul-11 17:28 157 36.1
2020-Jul-11 17:18 135 36.1
2020-Jul-11 17:08 157 36.7
2020-Jul-11 16:58 112 36.7
2020-Jul-11 16:48 112 37.2
2020-Jul-11 16:38 157 36.7
2020-Jul-11 16:28 157 36.7
2020-Jul-11 16:18 157 1 36.7
2020-Jul-11 16:09 166 36.7
2020-Jul-11 16:00 157 36.1
2020-Jul-11 15:50 157 36.1
2020-Jul-11 15:40 022 35.0
2020-Jul-11 15:31 112 35.0
2020-Jul-11 15:22 157 35.0
2020-Jul-11 15:12 159 0 35.0
2020-Jul-11 15:02 157 33.9
2020-Jul-11 14:52 325 32.8
2020-Jul-11 14:43 157 33.3
2020-Jul-11 14:33 159 33.3
2020-Jul-11 14:24 191 1 32.2
2020-Jul-11 14:14 162 0 32.2
2020-Jul-11 14:04 172 0 31.7
2020-Jul-11 13:55 161 30.6
2020-Jul-11 13:45 182 1 30.6
2020-Jul-11 13:35 179 0 30.0
2020-Jul-11 13:26 163 0 29.4
2020-Jul-11 13:17 157 0 28.9
2020-Jul-11 13:08 166 0 28.9
2020-Jul-11 12:58 184 2 28.3
2020-Jul-11 12:48 157 28.3
2020-Jul-11 12:39 162 1 27.8
2020-Jul-11 12:30 157 27.8
2020-Jul-11 12:20 157 0 27.8
2020-Jul-11 12:11 172 2 27.2
2020-Jul-11 12:01 157 0 27.2
2020-Jul-11 11:51 166 2 27.2
2020-Jul-11 11:42 159 1 26.7
2020-Jul-11 11:32 190 1 26.7
2020-Jul-11 11:22 163 0 26.7
2020-Jul-11 11:12 157 0 26.7
2020-Jul-11 11:03 157 0 26.7
2020-Jul-11 10:54 157 0 26.7
2020-Jul-11 10:44 167 1 26.7
2020-Jul-11 10:34 178 2 26.7
2020-Jul-11 10:25 157 26.7
2020-Jul-11 10:16 157 26.7
2020-Jul-11 10:06 157 26.7
2020-Jul-11 09:57 157 26.7
2020-Jul-11 09:48 157 26.7
2020-Jul-11 09:38 157 26.7
2020-Jul-11 09:29 157 26.7
2020-Jul-11 09:19 157 26.7
2020-Jul-11 09:00 157 26.7
2020-Jul-11 08:50 157 27.2
2020-Jul-11 08:40 157 27.2
2020-Jul-11 08:30 157 27.2
2020-Jul-11 08:21 157 27.2
2020-Jul-11 08:11 157 27.2
2020-Jul-11 08:02 157 27.2